This demonstration page uses our WeatherBlox Daily Observations layout. Learn more.

Left ArrowRight Arrow

40.97296, -117.73568

Hourly Observations for March 28, 2016

Temp ( °F °C ) Dew Point ( °F °C ) Humidity (%) Winds ( mph kmh ) Pressure ( in mb ) Visibility ( mi km ) Precip ( " mm )
12:56 am 00:56 Cloudy 36 2.2 31 -0.6 82 82 SSE 10 17 29.87 1011 10 16 0.00 0.00
1:56 am 01:56 Cloudy 36 2.2 31 -0.6 82 82 SSE 7 11 29.85 1011 10 16 0.00 0.00
2:56 am 02:56 Mostly Cloudy 34 1.1 31 -0.6 89 89 Calm 29.83 1010 10 16 0.00 0.00
3:43 am 03:43 Cloudy 36 2.2 31 -0.6 82 82 N 3 6 29.91 1013 10 16 0.00 0.00
3:56 am 03:56 Cloudy 35 1.7 31 -0.6 85 85 NNW 6 9 29.80 1009 10 16 0.00 0.00
4:17 am 04:17 Cloudy 35 1.7 31 -0.6 85 85 N 7 11 29.91 1013 10 16 0.00 0.00
4:49 am 04:49 Cloudy 34 1 30 -1 87 87 NNW 12 19 29.88 1012 10 16 0.00 0.00
4:56 am 04:56 Cloudy 34 1.1 31 -0.6 89 89 NNW 12 19 29.78 1008 10 16 0.00 0.00
5:24 am 05:24 Cloudy 34 1.1 31 -0.6 89 89 N 12 19 29.88 1012 10 16 0.00 0.00
5:48 am 05:48 Cloudy with Light Snow 34 1 32 0 93 93 N 12 19 29.88 1012 10 16 0.00 0.00
5:56 am 05:56 Cloudy with Light Snow 33 0.6 31 -0.6 92 92 NNW 10 17 29.78 1008 4 6 0.00 0.03
6:15 am 06:15 Cloudy with Light Snow 32 0 30 -1.1 92 92 N 12 19 29.88 1012 2 3 0.00 0.03
6:23 am 06:23 Cloudy with Light Snow 32 0 30 -1.1 92 92 N 15 24 29.88 1012 2 3 0.00 0.03
6:43 am 06:43 Cloudy with Light Snow 32 0 30 -1 93 93 N 13 20 29.88 1012 2 3 0.00 0.00
6:56 am 06:56 Cloudy with Light Snow 32 0 31 -0.6 96 96 N 16 26 29.75 1008 2 3 0.01 0.25
7:03 am 07:03 Cloudy with Light Snow 32 0 30 -1 93 93 NNE 17 28 29.88 1012 1 1 0.00 0.00
7:14 am 07:14 Cloudy with Snow 32 0 30 -1 93 93 NNE 17 28 29.88 1012 1 1 0.00 0.00
7:27 am 07:27 Cloudy with Light Snow 32 0 30 -1 93 93 NNE 17 28 29.88 1012 1 1 0.00 0.00
7:42 am 07:42 Cloudy with Light Snow 32 0 30 -1 93 93 NNE 17 28 29.88 1012 1 2 0.00 0.00
7:56 am 07:56 Cloudy with Light Snow 32 0 30 -1.1 92 92 N 18 30 29.76 1008 1 2 0.02 0.51
8:34 am 08:34 Windy with Snow Likely 30 -1 28 -2 93 93 NNE 28 44 29.88 1012 1 1 0.00 0.00
8:56 am 08:56 Cloudy with Snow 31 -0.6 29 -1.7 92 92 NNE 28 44 29.76 1008 1 1 0.01 0.25
9:02 am 09:02 Cloudy with Heavy Snow 30 -1 28 -2 93 93 NNE 28 44 29.85 1011 0 0 0.00 0.00
9:25 am 09:25 Mostly Cloudy with Heavy Snow 30 -1.1 28 -2.2 92 92 NNE 29 46 29.85 1011 0 0 0.02 0.51
9:56 am 09:56 Mostly Cloudy with Heavy Snow 30 -1.1 29 -1.7 96 96 NNE 24 39 29.77 1008 0 0 0.04 1.02
10:38 am 10:38 Mostly Cloudy with Light Snow 30 -1.1 29 -1.7 96 96 N 15 24 29.88 1012 1 1 0.03 0.76
10:56 am 10:56 Mostly Cloudy with Snow 31 -0.6 29 -1.7 92 92 NNE 17 28 29.79 1009 1 1 0.04 1.02
11:39 am 11:39 Mostly Cloudy with Light Snow 33 0.6 29 -1.7 85 85 NNE 21 33 29.85 1011 1 1 0.02 0.51
11:56 am 11:56 Windy with Snow Likely 34 1.1 29 -1.7 82 82 NNE 21 33 29.77 1008 1 2 0.03 0.76
12:08 pm 12:08 Mostly Cloudy with Light Snow 34 1 28 -2 81 81 NNE 21 33 29.85 1011 1 1 0.00 0.00
12:29 pm 12:29 Mostly Cloudy with Light Snow 34 1.1 29 -1.7 82 82 NNE 16 26 29.85 1011 1 2 0.00 0.03
12:43 pm 12:43 Cloudy with Light Snow 34 1 30 -1 87 87 NNE 18 30 29.85 1011 1 1 0.00 0.00
12:56 pm 12:56 Cloudy with Light Snow 33 0.6 30 -1.1 89 89 NNE 13 20 29.78 1009 1 2 0.00 0.03
1:07 pm 13:07 Windy with Snow Likely 34 1.1 30 -1.1 85 85 NNE 20 31 29.83 1010 1 2 0.01 0.25
1:20 pm 13:20 Cloudy with Light Snow 35 1.7 29 -1.7 78 78 ENE 9 15 29.85 1011 2 3 0.01 0.25
1:30 pm 13:30 Cloudy with Light Snow 36 2 28 -2 75 75 NE 10 17 29.80 1009 5 8 0.00 0.00
1:56 pm 13:56 Cloudy 37 2.8 28 -2.2 70 70 NE 10 17 29.74 1007 9 14 0.01 0.25
2:56 pm 14:56 Cloudy 40 4.4 26 -3.3 58 58 N 15 24 29.70 1006 10 16 0.00 0.03
3:56 pm 15:56 Cloudy 42 5.6 23 -5 47 47 N 21 33 29.69 1005 10 16 0.00 0.00
4:56 pm 16:56 Cloudy 43 6.1 21 -6.1 42 42 N 20 31 29.68 1005 10 16 0.00 0.00
5:56 pm 17:56 Cloudy 42 5.6 20 -6.7 41 41 N 21 33 29.70 1006 10 16 0.00 0.00
6:56 pm 18:56 Cloudy 41 5 18 -7.8 39 39 NNW 13 20 29.72 1006 10 16 0.00 0.00
7:56 pm 19:56 Cloudy 38 3.3 19 -7.2 46 46 NNW 10 17 29.74 1007 10 16 0.00 0.00
8:56 pm 20:56 Partly Cloudy 36 2.2 17 -8.3 46 46 NNW 13 20 29.76 1008 10 16 0.00 0.00
9:56 pm 21:56 Clear 33 0.6 19 -7.2 56 56 N 6 9 29.77 1008 10 16 0.00 0.00
10:56 pm 22:56 Clear 33 0.6 20 -6.7 58 58 NNW 17 28 29.75 1008 10 16 0.00 0.00
11:56 pm 23:56 Mostly Cloudy 33 0.6 20 -6.7 58 58 NNW 20 31 29.74 1007 10 16 0.00 0.00

Powered by AerisWeather